Tracking 19795 objects as of 20-Jul-2019
HD Live streaming from Space Station
objects crossing your sky now

FENGYUN 1C DEB

Track FENGYUN 1C DEB now!
10-day predictions


NORAD ID: 32353
Int'l Code: 1999-025CYW
Perigee: 833.4 km
Apogee: 1,047.8 km
Inclination: 99.0 °
Period: 103.7 minutes
Semi major axis: 7311 km
RCS: 0.0065 m2 (small)
Launch date: May 10, 1999
Source: People's Republic of China (PRC)
Launch site: Taiyaun Space Center, China (TSC)

Note: This is SATELLITE DEBRIS
aabbcc
Your satellite tracking list
Your tracking list is empty




NASA's NSSDC Master Catalog

Two Line Element Set (TLE):
1 32353U 99025CYW 19200.44510096  .00000494  00000-0  40832-3 0  9999
2 32353  98.9857  64.0555 0146636 119.0851 242.5082 13.88622772609071
Source of the keplerian elements: AFSPC